Flag for Germany Weather past 2 weeks in Kornwestheim, Baden-Württemberg, Germany

Now
64 °F

Partly sunny.


Feels Like: 64 °F
Forecast: 58 / 78 °F
Wind: 2 mph from Southeast

Location: Stuttgart-Echterdingen

Current Time: Sep 18, 2014 at 8:48:30 PM

Latest Report: Sep 18, 2014 at 7:50 PM


Visibility: N/A

Pressure: 29.92 "Hg

Humidity: 94%

Dew point: 63 °F

Location of KornwestheimLocation

Historic Weather in Kornwestheim — Graph

°F

Kornwestheim temperature yesterday

Maximum temperature yesterday: 75 °F (at 3:20 PM)
Minimum temperature yesterday: 52 °F (at 3:50 AM)
Average temperature yesterday: 61 °F

Past Weeks' High & Low Weather Summary

 TemperatureHumidityPressure
High77 °F (Sep 6, 2:50 PM)100% (Sep 5, 3:50 AM)30.15 "Hg (Sep 5, 3:50 AM)
Low52 °F (Sep 11, 1:50 AM)50% (Sep 5, 5:20 PM)29.89 "Hg (Sep 17, 2:50 PM)
Average61 °F84%30.01 "Hg
* Reported Sep 3 7:20 PM — Sep 18 7:50 PM, Kornwestheim, Weather by CustomWeather, © 2014

Note: Actual official high and low records may vary slightly from our data, if they occured in-between our weather recording intervals... More about our weather records

Advertising

Kornwestheim weather history for previous 24 hours

 ConditionsComfort  
Time TempWeatherWind HumidityBarometerVisibility
7:50 PM
Sep 18
64 °FPartly sunny.2 mph94%29.92 "HgN/A
7:20 PM66 °FLight rain. Broken clouds.1 mph88%29.92 "HgN/A
6:50 PM66 °FLight rain. Broken clouds.5 mph88%29.95 "HgN/A
6:20 PM66 °FRain. Broken clouds.7 mph94%29.95 "HgN/A
5:50 PM68 °FRain. Broken clouds.9 mph83%29.92 "HgN/A
5:20 PM72 °FRain. Partly sunny.3 mph73%29.92 "HgN/A
4:50 PM73 °FPartly sunny.1 mph65%29.92 "HgN/A
4:20 PM73 °FPartly sunny.2 mph65%29.92 "HgN/A
3:50 PM75 °FPartly sunny.2 mph61%29.89 "HgN/A
3:20 PM73 °FBroken clouds.2 mph65%29.89 "HgN/A
2:50 PM73 °FBroken clouds.1 mph61%29.89 "HgN/A
2:20 PM73 °FBroken clouds.2 mph61%29.89 "HgN/A
1:50 PM73 °FBroken clouds.3 mph65%29.89 "HgN/A
1:20 PM72 °FBroken clouds.3 mph73%29.89 "HgN/A
12:50 PM73 °FBroken clouds.3 mph69%29.89 "HgN/A
12:20 PM72 °FSunny.3 mph69%29.92 "Hg10 mi
11:50 AM72 °FSunny.1 mph69%29.92 "Hg10 mi
11:20 AM68 °FSunny.1 mph78%29.92 "Hg10 mi
10:50 AM68 °FSunny.1 mph78%29.92 "Hg10 mi
10:20 AM68 °FSunny.1 mph78%29.92 "Hg10 mi
9:50 AM64 °FSunny.1 mph83%29.92 "Hg10 mi
9:20 AM64 °FSunny.1 mph83%29.92 "Hg10 mi
8:50 AM61 °FSunny.2 mph94%29.92 "Hg10 mi
8:20 AM59 °FSunny.1 mph94%29.89 "Hg10 mi
7:50 AM57 °FClear.No wind94%29.89 "Hg10 mi
7:20 AM57 °FClear.3 mph94%29.89 "Hg10 mi
6:50 AM57 °FClear.2 mph94%29.89 "Hg10 mi
6:20 AM57 °FClear.2 mph94%29.89 "Hg10 mi
5:50 AM57 °FClear.3 mph94%29.89 "Hg10 mi
5:20 AM59 °FClear.1 mph88%29.89 "Hg10 mi
4:50 AM59 °FPassing clouds.1 mph94%29.89 "HgN/A
4:20 AM59 °FLight rain. Clear.1 mph94%29.89 "HgN/A
3:50 AM59 °FClear.1 mph88%29.89 "Hg10 mi
3:20 AM59 °FClear.1 mph88%29.89 "Hg10 mi
2:50 AM59 °FClear.3 mph88%29.89 "Hg10 mi
2:20 AM59 °FClear.2 mph88%29.89 "Hg10 mi
1:50 AM59 °FClear.1 mph94%29.89 "Hg10 mi
1:20 AM57 °FClear.1 mph94%29.89 "Hg10 mi
12:50 AM59 °FClear.2 mph88%29.92 "Hg10 mi
12:20 AM59 °FClear.3 mph88%29.92 "Hg10 mi
11:50 PM
Sep 17
59 °FClear.1 mph88%29.89 "Hg10 mi
11:20 PM59 °FClear.1 mph88%29.92 "Hg10 mi
10:50 PM59 °FClear.1 mph88%29.92 "Hg10 mi
10:20 PM59 °FClear.1 mph88%29.92 "Hg10 mi
9:50 PM61 °FClear.1 mph88%29.92 "Hg10 mi
9:20 PM61 °FClear.2 mph83%29.92 "Hg10 mi
8:50 PM63 °FClear.2 mph83%29.92 "Hg10 mi
8:20 PM63 °FSunny.6 mph83%29.92 "Hg10 mi
Weather by CustomWeather, © 2014

See weather overviewHow to use our weather pages